Location: Unspecified
(48.7670°N, 0.0000°E)
Time: 17:55:23
(UTC+00:00)

Courier 1B - Pass Details

Date: 19 June 2019
Orbit: 963 x 1209 km, 28.3° (Epoch: 14 July)

Event Time Altitude Azimuth Distance (km) Brightness Sun altitude
Rises 23:01:41 0° 243° (WSW) 4,060 10.6 -16.6°
Reaches altitude 10° 23:06:36 10° 216° (SW) 3,126 9.8 -16.8°
Enters shadow 23:07:19 11° 211° (SSW) 3,050 9.7 -16.8°
Maximum altitude 23:09:32 12° 194° (SSW) 2,948 - -16.9°
Drops below altitude 10° 23:12:30 10° 171° (S) 3,139 - -17.0°
Sets 23:17:28 0° 145° (SE) 4,095 - -17.1°
